CAPE
1715 1653 1543 1646 1505 1479 1415 1130 996 936 791 688 724 697 684 694 698 633 639 682 901 1015 1071 1021 1855 1749 1486 1450 1659 1231 1409 1562 1536 1636 1524 1620 1679 1574 1568 1385 637 463
1712 1571 1419 1328 1316 1166 1077 1033 903 806 810 767 820 672 832 630 652 584 625 639 873 890 1053 963 1120 1640 1826 1583 1300 1582 1424 1430 1713 1421 1731 1759 1640 1291 1382 1372 903 410
1634 1448 1294 1184 1168 1201 1056 942 879 772 712 803 782 610 616 603 560 444 502 470 553 791 1130 1109 1075 1029 952 1378 1740 1685 1384 1569 1179 1385 1658 1689 1281 1208 1046 969 955 1508
1593 1293 1113 1173 1138 1149 968 879 852 793 732 659 528 470 537 519 407 405 374 426 368 682 936 959 1093 876 655 732 1207 1630 1245 1095 946 1458 1614 1682 900 851 1010 1603 1387 1462
1744 1478 1201 921 821 858 835 798 762 685 631 566 552 438 412 388 325 275 297 282 261 346 486 571 792 855 813 753 764 1099 1661 1389 1666 1650 1615 1854 1650 1610 1680 1534 1735 1647
1728 1445 1128 1033 990 976 863 807 660 691 643 572 504 308 375 344 272 297 193 202 231 232 447 500 591 762 746 744 848 933 1314 1430 1567 1676 1616 1357 896 1097 1252 1447 1787 1750
1652 1441 1213 1122 958 904 823 774 681 627 550 519 415 402 330 273 214 200 125 154 167 226 543 698 733 765 662 685 536 948 578 470 675 693 429 312 344 654 606 1269 1592 1600
1849 1672 1406 1084 1087 866 782 847 736 658 711 504 499 433 278 181 161 154 41 89 136 204 282 290 383 483 595 504 379 422 507 492 347 184 124 112 292 280 810 1166 1661 1628
1803 1594 1263 1207 1046 817 872 648 645 763 545 533 492 418 325 185 100 0 53 114 126 147 128 184 173 300 275 147 74 62 22 28 41 83 137 176 261 95 17 156 272 654
1606 1310 1312 933 827 773 784 780 732 644 561 502 384 297 123 114 0 0 17 109 92 88 114 72 80 126 92 20 0 0 0 0 26 71 55 33 1 0 0 0 22 40
1566 1337 1061 770 732 696 865 821 706 596 565 480 371 188 53 7 0 0 0 26 44 13 7 4 7 10 36 61 96 42 0 0 0 1 8 0 0 0 0 2 14 55
1352 1339 1112 995 957 980 992 706 564 533 504 414 124 56 12 0 0 0 0 0 0 0 2 5 1 0 1 0 20 39 27 5 0 0 0 0 0 0 0 3 11 11
1096 1209 1164 1159 1214 1169 983 555 543 479 330 126 36 8 0 0 0 0 0 0 0 0 0 0 0 0 0 0 0 1 14 29 44 5 0 0 0 0 0 0 0 14
634 622 553 486 427 383 429 571 518 294 79 5 0 0 0 0 0 0 0 0 0 0 0 0 0 0 0 0 0 0 0 10 64 64 17 7 3 0 0 0 0 0
189 435 398 235 153 193 202 151 152 144 38 0 0 0 0 0 0 0 0 0 0 0 0 0 33 150 0 0 0 0 0 0 7 41 51 44 16 0 0 0 0 0
88 192 208 121 42 44 51 91 147 120 53 0 0 0 0 0 0 0 0 0 0 0 1 42 7 0 0 0 0 0 0 0 0 35 20 7 0 0 0 0 0 0
0 0 0 0 0 0 0 4 12 58 133 262 245 1 90 7 3 0 0 0 0 0 0 0 0 0 0 0 0 0 181 24 6 0 0 3 7 18 12 5 3 0
0 0 0 0 0 0 0 0 1 0 0 2 16 1 267 335 195 116 72 74 4 0 0 0 0 0 0 0 0 0 0 2 2 4 14 78 90 43 31 22 18 32
0 0 0 0 0 0 0 0 0 0 0 0 0 1 10 46 113 51 0 0 0 0 0 0 0 0 0 0 0 0 0 26 17 5 6 26 37 20 101 117 258 237
0 3 0 0 0 1 0 0 1 0 0 2 0 0 0 0 0 0 0 0 0 0 0 0 0 0 0 0 0 0 0 58 152 170 164 150 112 145 159 168 168 78
0 1 0 0 0 0 0 0 2 2 1 2 0 0 0 0 0 0 0 0 0 0 0 0 0 0 0 0 0 0 0 15 656 675 370 519 597 865 802 820 777 778
5 0 0 0 3 2 2 0 0 0 0 0 0 0 0 0 0 0 0 0 0 0 0 0 0 0 0 0 0 0 0 10 191 345 506 694 802 903 885 970 1002 1037
6 4 3 0 4 7 1 0 0 0 0 0 0 0 1 0 0 0 0 0 1 0 0 0 0 0 0 0 0 0 0 0 0 1 26 64 170 124 392 472 483 39
3 0 2 3 9 7 1 1 1 0 0 0 0 0 2 0 0 0 0 2 8 16 22 25 0 0 0 0 0 0 0 0 0 0 0 0 0 0 0 38 0 0
4 0 0 0 0 1 1 0 0 0 0 0 0 0 0 0 0 0 0 0 10 18 30 44 59 63 73 30 28 12 0 31 0 0 0 0 0 0 0 0 0 4
0 0 0 0 0 0 0 0 0 0 0 0 0 0 1 1 0 0 0 0 0 0 0 51 78 82 81 73 70 71 68 50 3 44 0 0 0 0 0 0 0 0
Wind_Speed
10 9 10 9 9 11 13 15 17 19 21 21 22 22 21 22 21 18 17 16 16 15 15 14 15 13 12 11 10 10 11 9 9 9 10 11 11 11 12 12 14 9
11 11 10 10 11 12 14 16 18 19 21 21 21 20 20 19 19 17 16 15 14 14 15 15 14 14 12 10 10 10 9 8 7 9 9 9 11 12 11 10 9 12
13 12 11 11 13 15 16 16 17 17 18 18 18 16 16 16 17 16 15 13 13 14 14 14 14 14 13 12 11 9 9 9 7 6 7 9 12 12 10 9 7 14
14 14 14 14 14 15 14 14 14 13 13 13 12 13 13 14 14 15 15 14 13 13 13 13 13 13 12 13 11 11 11 10 9 7 8 11 12 13 11 13 14 16
16 15 15 15 15 14 13 12 12 12 11 12 12 12 12 13 13 14 15 14 13 12 11 11 12 13 13 13 12 12 13 13 14 12 11 12 13 15 17 16 17 17
16 15 15 15 14 14 13 13 13 13 12 12 13 12 13 12 12 12 13 13 11 9 8 7 7 10 11 12 13 13 14 14 14 12 11 12 13 14 14 14 15 16
17 16 16 15 14 14 14 15 15 14 13 12 12 12 11 10 10 11 12 11 9 7 6 6 7 8 10 11 12 13 12 11 11 9 8 9 10 10 11 11 13 14
20 18 16 16 15 15 16 18 18 16 14 13 12 11 9 9 10 12 nan nan 10 11 10 10 10 11 11 11 11 12 12 12 10 9 7 9 8 10 11 11 13 14
21 20 19 18 17 17 17 18 18 17 15 14 13 12 11 10 nan nan nan 12 13 14 14 15 14 14 14 13 nan nan nan nan nan nan 10 10 11 nan nan 14 15 14
22 21 20 19 19 19 18 18 18 17 17 16 16 14 14 14 nan nan nan 14 nan nan 15 nan nan 15 nan nan nan nan nan nan nan nan nan nan nan nan nan nan nan nan
24 21 19 19 19 20 19 18 18 18 18 18 18 17 nan nan nan nan nan nan nan nan nan nan nan nan nan nan nan nan nan nan nan nan nan nan nan nan nan nan nan nan
26 22 20 20 20 20 18 17 18 18 19 19 18 nan nan nan nan nan nan nan nan nan nan nan nan nan nan nan nan nan nan nan nan nan nan nan nan nan nan nan nan nan
27 26 24 23 22 21 20 18 19 20 19 20 nan nan nan nan nan nan nan nan nan nan nan nan nan nan nan nan nan nan nan nan nan nan nan nan nan nan nan nan nan nan
28 27 27 25 23 22 23 22 21 21 nan nan nan nan nan nan nan nan nan nan nan nan nan nan nan nan nan nan nan nan nan nan nan nan nan nan nan nan nan nan nan nan
30 27 26 28 27 26 26 27 25 23 nan nan nan nan nan nan nan nan nan nan nan nan nan nan nan 24 nan nan nan nan nan nan nan nan nan nan nan nan nan nan nan nan
nan 29 27 28 nan nan nan nan 29 27 nan nan nan nan nan nan nan nan nan nan nan nan nan nan nan nan nan nan nan nan nan nan nan nan nan nan nan nan nan nan nan nan
nan nan nan nan nan nan nan nan nan nan 32 29 25 nan nan nan nan nan nan nan nan nan nan nan nan nan nan nan nan nan 21 nan nan nan nan nan nan nan nan nan nan nan
nan nan nan nan nan nan nan nan nan nan nan nan nan nan 27 27 25 24 nan nan nan nan nan nan nan nan nan nan nan nan nan nan nan nan nan nan nan nan nan nan nan nan
nan nan nan nan nan nan nan nan nan nan nan nan nan nan nan nan 28 nan nan nan nan nan nan nan nan nan nan nan nan nan nan nan nan nan nan nan nan nan 27 28 28 28
nan nan nan nan nan nan nan nan nan nan nan nan nan nan nan nan nan nan nan nan nan nan nan nan nan nan nan nan nan nan nan nan 27 29 28 29 28 28 27 27 27 nan
nan nan nan nan nan nan nan nan nan nan nan nan nan nan nan nan nan nan nan nan nan nan nan nan nan nan nan nan nan nan nan nan 31 29 29 30 30 30 29 30 30 30
nan nan nan nan nan nan nan nan nan nan nan nan nan nan nan nan nan nan nan nan nan nan nan nan nan nan nan nan nan nan nan nan 33 32 32 32 32 32 30 31 32 32
nan nan nan nan nan nan nan nan nan nan nan nan nan nan nan nan nan nan nan nan nan nan nan nan nan nan nan nan nan nan nan nan nan nan nan nan 33 32 32 33 35 nan
nan nan nan nan nan nan nan nan nan nan nan nan nan nan nan nan nan nan nan nan nan nan nan nan nan nan nan nan nan nan nan nan nan nan nan nan nan nan nan nan nan nan
nan nan nan nan nan nan nan nan nan nan nan nan nan nan nan nan nan nan nan nan nan nan nan nan nan nan nan nan nan nan nan nan nan nan nan nan nan nan nan nan nan nan
nan nan nan nan nan nan nan nan nan nan nan nan nan nan nan nan nan nan nan nan nan nan nan nan nan nan nan nan nan nan nan nan nan nan nan nan nan nan nan nan nan nan
Wind_Direction
252 248 254 255 262 265 268 265 260 259 255 254 254 257 262 265 268 266 262 262 262 263 263 265 267 264 261 257 249 245 247 244 250 252 256 257 253 255 258 268 278 271
247 245 244 248 252 257 257 256 254 253 250 250 252 256 258 262 260 260 260 261 262 264 264 265 268 271 274 268 266 252 246 242 237 239 245 265 256 262 262 272 288 292
249 248 252 253 252 254 255 253 253 250 253 252 253 256 255 252 253 253 256 258 262 266 267 265 266 265 267 266 266 257 246 250 235 229 238 259 259 262 266 281 289 288
253 254 255 254 250 250 250 254 255 256 256 259 257 250 245 243 247 253 254 254 259 264 264 263 262 261 261 263 266 262 268 272 285 274 260 265 275 286 290 279 278 278
259 260 262 258 252 252 255 261 266 266 267 258 253 248 243 242 245 252 253 252 252 257 257 259 256 253 253 255 260 259 263 263 267 272 273 272 276 277 279 283 284 286
268 268 267 260 257 263 267 269 270 269 267 261 253 246 244 244 244 245 242 241 243 243 248 253 259 254 253 255 256 258 262 264 268 273 276 277 276 275 276 283 288 291
269 267 266 260 262 268 269 268 267 267 263 256 252 244 243 239 234 226 221 222 235 244 261 270 272 267 254 252 256 256 257 258 264 267 269 271 272 278 278 286 292 296
263 260 258 252 255 262 265 266 267 267 263 259 254 248 239 234 226 220 nan nan 230 245 259 267 274 271 262 253 254 255 254 247 251 260 263 269 264 278 281 281 286 291
257 255 252 249 248 250 258 263 266 267 266 263 259 255 246 239 nan nan nan 237 243 247 253 255 257 258 254 251 nan nan nan nan nan nan 256 265 273 nan nan 281 281 280
257 255 255 252 246 244 254 258 261 262 261 262 260 257 257 248 nan nan nan 252 nan nan 252 nan nan 248 nan nan nan nan nan nan nan nan nan nan nan nan nan nan nan nan
254 255 257 254 248 244 249 252 257 258 256 258 257 258 nan nan nan nan nan nan nan nan nan nan nan nan nan nan nan nan nan nan nan nan nan nan nan nan nan nan nan nan
250 250 253 252 247 243 244 246 250 254 255 252 255 nan nan nan nan nan nan nan nan nan nan nan nan nan nan nan nan nan nan nan nan nan nan nan nan nan nan nan nan nan
246 245 246 246 242 237 234 239 244 247 251 251 nan nan nan nan nan nan nan nan nan nan nan nan nan nan nan nan nan nan nan nan nan nan nan nan nan nan nan nan nan nan
241 242 243 243 241 239 237 237 241 243 nan nan nan nan nan nan nan nan nan nan nan nan nan nan nan nan nan nan nan nan nan nan nan nan nan nan nan nan nan nan nan nan
237 240 242 245 243 242 242 241 242 244 nan nan nan nan nan nan nan nan nan nan nan nan nan nan nan 224 nan nan nan nan nan nan nan nan nan nan nan nan nan nan nan nan
nan 245 246 246 nan nan nan nan 243 247 nan nan nan nan nan nan nan nan nan nan nan nan nan nan nan nan nan nan nan nan nan nan nan nan nan nan nan nan nan nan nan nan
nan nan nan nan nan nan nan nan nan nan 242 237 237 nan nan nan nan nan nan nan nan nan nan nan nan nan nan nan nan nan 225 nan nan nan nan nan nan nan nan nan nan nan
nan nan nan nan nan nan nan nan nan nan nan nan nan nan 236 238 242 247 nan nan nan nan nan nan nan nan nan nan nan nan nan nan nan nan nan nan nan nan nan nan nan nan
nan nan nan nan nan nan nan nan nan nan nan nan nan nan nan nan 240 nan nan nan nan nan nan nan nan nan nan nan nan nan nan nan nan nan nan nan nan nan 254 257 258 260
nan nan nan nan nan nan nan nan nan nan nan nan nan nan nan nan nan nan nan nan nan nan nan nan nan nan nan nan nan nan nan nan 250 253 253 255 255 256 258 259 259 nan
nan nan nan nan nan nan nan nan nan nan nan nan nan nan nan nan nan nan nan nan nan nan nan nan nan nan nan nan nan nan nan nan 252 252 255 255 255 254 254 254 255 255
nan nan nan nan nan nan nan nan nan nan nan nan nan nan nan nan nan nan nan nan nan nan nan nan nan nan nan nan nan nan nan nan 252 252 252 253 254 254 254 256 256 256
nan nan nan nan nan nan nan nan nan nan nan nan nan nan nan nan nan nan nan nan nan nan nan nan nan nan nan nan nan nan nan nan nan nan nan nan 253 253 257 258 258 nan
nan nan nan nan nan nan nan nan nan nan nan nan nan nan nan nan nan nan nan nan nan nan nan nan nan nan nan nan nan nan nan nan nan nan nan nan nan nan nan nan nan nan
nan nan nan nan nan nan nan nan nan nan nan nan nan nan nan nan nan nan nan nan nan nan nan nan nan nan nan nan nan nan nan nan nan nan nan nan nan nan nan nan nan nan
nan nan nan nan nan nan nan nan nan nan nan nan nan nan nan nan nan nan nan nan nan nan nan nan nan nan nan nan nan nan nan nan nan nan nan nan nan nan nan nan nan nan